Mosinee, WI

6:59 AM CDT on September 26, 2017 (GMT -0500)
Central Wisconsin

Weather History for KCWA - February, 2014

Change the Weather History Date:

Friday, February 14, 2014

  Actual Average Record
Temperature  
Mean Temperature 10 °F -  
Max Temperature 19 °F 26 °F 46 °F (2002)
Min Temperature 1 °F 10 °F -9 °F (2016)
Degree Days  
Heating Degree Days 55    
Moisture  
Dew Point 6 °F    
Average Humidity 81    
Maximum Humidity 93    
Minimum Humidity 63    
Precipitation  
Precipitation 0.00 in - - ()
Sea Level Pressure  
Sea Level Pressure 29.73 in    
Wind  
Wind Speed 12 mph (NW)    
Max Wind Speed 17 mph    
Max Gust Speed 23 mph    
Visibility 10 miles    
Events Snow    
Averages and records for this station are not official NWS values.
T = Trace of Precipitation, MM = Missing Value Source: NWS Daily Summary

Daily Weather History Graph

Daily Weather History Graph

Search for Another Location

Airport or City:

Trip Planner

Search our weather history database for the weather conditions in past years. The results will help you decide how hot, cold, wet, or windy it might be!

Date:

Astronomy

Feb. 14, 2014 Rise Set
Actual Time 7:00 AM CST 5:25 PM CST
Civil Twilight 6:30 AM CST 5:55 PM CST
Nautical Twilight 5:56 AM CST 6:30 PM CST
Astronomical Twilight 5:22 AM CST 7:04 PM CST
Moon 5:31 PM CST (2/14) 6:26 AM CST (2/14)
Length of Visible Light 11h 25m
Length of Day
10h 25m
Full, 100% of the Moon is Illuminated
Feb 14
Full
Feb 14
Full
Feb 22
Last Quarter
Mar 1
New
Mar 8
First Quarter

Hourly Weather History & Observations

Time (CST) Temp. Windchill Dew Point Humidity Pressure Visibility Wind Dir Wind Speed Gust Speed Precip Events Conditions
12:15 AM 15.8 °F 2.1 °F 12.2 °F 86% 29.55 in 10.0 mi WNW 12.7 mph - N/A   Mostly Cloudy
12:35 AM 14.0 °F -0.2 °F 12.2 °F 93% 29.56 in 10.0 mi NW 12.7 mph 18.4 mph N/A   Overcast
12:55 AM 15.8 °F 2.1 °F 12.2 °F 86% 29.56 in 10.0 mi WNW 12.7 mph 17.3 mph N/A   Overcast
1:15 AM 15.8 °F 2.7 °F 12.2 °F 86% 29.56 in 10.0 mi WNW 11.5 mph 19.6 mph N/A   Mostly Cloudy
1:35 AM 14.0 °F 0.5 °F 10.4 °F 86% 29.57 in 10.0 mi WNW 11.5 mph 19.6 mph N/A   Scattered Clouds
1:55 AM 12.2 °F -3.1 °F 8.6 °F 85% 29.58 in 10.0 mi WNW 13.8 mph 18.4 mph N/A   Scattered Clouds
2:15 AM 12.2 °F -2.5 °F 8.6 °F 85% 29.58 in 10.0 mi WNW 12.7 mph 18.4 mph N/A   Scattered Clouds
2:35 AM 12.2 °F -1.8 °F 8.6 °F 85% 29.58 in 10.0 mi NW 11.5 mph 16.1 mph N/A   Scattered Clouds
2:55 AM 12.2 °F -1.0 °F 8.6 °F 85% 29.58 in 10.0 mi WNW 10.4 mph - N/A Snow Light Snow
3:15 AM 12.2 °F -3.1 °F 8.6 °F 85% 29.58 in 10.0 mi WNW 13.8 mph 20.7 mph N/A   Clear
3:35 AM 10.4 °F -6.0 °F 6.8 °F 85% 29.59 in 10.0 mi NW 15.0 mph 23.0 mph N/A   Scattered Clouds
3:55 AM 12.2 °F -4.8 °F 8.6 °F 85% 29.59 in 7.0 mi NW 17.3 mph - N/A   Overcast
4:15 AM 12.2 °F -4.8 °F 8.6 °F 85% 29.60 in 7.0 mi WNW 17.3 mph 21.9 mph N/A Snow Light Snow
4:35 AM 12.2 °F -1.8 °F 8.6 °F 85% 29.62 in 10.0 mi NW 11.5 mph 18.4 mph N/A   Overcast
5:50 AM 10.4 °F -4.1 °F 6.8 °F 85% 29.62 in 10.0 mi NW 11.5 mph - N/A   Overcast
6:45 AM - - - N/A% 29.65 in 10.0 mi NW 11.5 mph 18.4 mph N/A   Overcast
7:45 AM 8.6 °F -8.3 °F 6.8 °F 92% 29.68 in 10.0 mi NNW 15.0 mph 19.6 mph N/A Snow Light Snow
8:45 AM 8.6 °F -7.7 °F 6.8 °F 92% 29.70 in 10.0 mi NW 13.8 mph 19.6 mph N/A   Scattered Clouds
9:45 AM 10.4 °F -6.6 °F 6.8 °F 85% 29.72 in 10.0 mi NW 16.1 mph 23.0 mph N/A   Scattered Clouds
10:55 AM 12.2 °F 1.7 °F 6.8 °F 79% 29.75 in 10.0 mi NW 6.9 mph - N/A   Clear
11:50 AM 15.8 °F 3.4 °F 8.6 °F 73% 29.75 in 10.0 mi WNW 10.4 mph - N/A   Clear
12:45 PM 17.6 °F 5.0 °F 8.6 °F 68% 29.74 in 10.0 mi WNW 11.5 mph - N/A   Clear
2:45 PM 19.4 °F 6.6 °F 10.4 °F 68% 29.76 in 10.0 mi West 12.7 mph - N/A   Clear
3:45 PM 17.6 °F 4.3 °F 8.6 °F 68% 29.78 in 10.0 mi WNW 12.7 mph 18.4 mph N/A   Clear
4:45 PM 17.6 °F 5.7 °F 6.8 °F 63% 29.80 in 10.0 mi West 10.4 mph - N/A   Clear
5:45 PM 12.2 °F -2.5 °F 3.2 °F 67% 29.84 in 10.0 mi West 12.7 mph - N/A   Clear
6:45 PM 12.2 °F -0.2 °F 3.2 °F 67% 29.87 in 10.0 mi WNW 9.2 mph - N/A   Clear
7:45 PM 8.6 °F -2.6 °F 1.4 °F 73% 29.88 in 10.0 mi NW 6.9 mph - N/A   Clear
8:45 PM 10.4 °F -3.3 °F 3.2 °F 73% 29.91 in 10.0 mi North 10.4 mph - N/A   Clear
9:15 PM 8.6 °F -2.6 °F 3.2 °F 79% 29.90 in 10.0 mi North 6.9 mph - N/A   Clear
9:35 PM 8.6 °F -4.7 °F 3.2 °F 79% 29.91 in 10.0 mi North 9.2 mph - N/A   Clear
9:55 PM 8.6 °F -4.7 °F 1.4 °F 73% 29.92 in 10.0 mi NNW 9.2 mph - N/A   Clear
10:15 PM 6.8 °F -5.9 °F 1.4 °F 79% 29.92 in 10.0 mi NNW 8.1 mph - N/A   Clear
10:35 PM 6.8 °F -7.8 °F 1.4 °F 79% 29.93 in 10.0 mi NNW 10.4 mph - N/A   Clear
10:55 PM 3.2 °F -12.2 °F -0.4 °F 85% 29.94 in 10.0 mi NW 10.4 mph - N/A   Clear
11:15 PM 1.4 °F -9.9 °F -2.2 °F 85% 29.94 in 10.0 mi NW 5.8 mph - N/A   Clear
11:35 PM 1.4 °F -9.9 °F -2.2 °F 85% 29.94 in 10.0 mi NW 5.8 mph - N/A   Clear
11:55 PM 1.4 °F -9.9 °F -0.4 °F 92% 29.95 in 10.0 mi NNW 5.8 mph - N/A   Clear